Starlink 2443

operational
NORAD ID: 48107 Int'l Des: 2021-027 Owner: SPXS Country: US Constellation: starlink
LEOCIRCULARSTARLINK_TYPE

Über Starlink 2443

Beschreibung wird geladen...

Live-Position

3D-Globus wird geladen...

Nächste Überflüge

Höhenverlauf

Altitude vs Time

uPlot chart will show altitude changes over time

Zweizeiliger Elementsatz

1 48107U 21027R 25352.66358292 .00000108 00000-0 26169-4 0 9997
2 48107 53.0544 155.3593 0001379 90.2960 269.8188 15.06395005260486
Epoch: 18. Dez. 2025 • Age: 12 hours

Aktueller Status

Höhe 550.1 km
Geschwindigkeit 7.59 km/s
Subsatellitenpunkt 40.24°N, 151.44°E
Startdatum 7. Apr. 2021
Alter 4.6 years
Typ internet

Technische Details

Klassifizierung Payload
Masse 260.00 kg
Trockenmasse 248.00 kg
Gesamtmasse 260.00 kg
Länge 0.20 m
Durchmesser 2.80 m
Spannweite 9.00 m
Form Box + pan
Hersteller SPXS
Bus-Typ Starlink
Phasenstatus In Orbit
Besitzer/Staat SPXS/US

Große Konstellationen

Loading constellations...